Preview of NWS' New Version of Forecast
This preview is not operational and should not be used for support decisions.

Regional Weather Roundup (RWR)

Issued by Gray - Portland, ME (GYX)

                            
000
ASUS41 KGYX 230505
RWRGYX
WEATHER ROUNDUP FOR MAINE AND NEW HAMPSHIRE
NATIONAL WEATHER SERVICE GRAY ME
100 AM EDT FRI AUG 23 2019

MEZ002-005-006-010-012-015-018-020-021-024-026-027-029-230600-
MAINE
  
CITY           SKY/WX    TMP DP  RH WIND       PRES   REMARKS
PORTLAND       FAIR      69  60  73 W3        29.86R                  
SANFORD        FAIR      66  62  87 W5        29.88R                  
BAR HARBOR     MOCLDY    66  65  96 CALM      29.82R                  
WISCASSET      FAIR      68  58  70 CALM      29.87R                  
ROCKLAND       MOCLDY    70  64  81 W6        29.84R                  
FRYEBURG       FAIR      66  55  67 W3        29.89R                  
LEWISTONAUBURN FAIR      66  61  84 NW3       29.87R                  
AUGUSTA        FAIR      67  58  72 W5        29.87R                  
WATERVILLE     FAIR      67  57  70 W6        29.83R                  
BANGOR         FAIR      65  63  93 CALM      29.83R                  
GREENVILLE       N/A     59  52  77 CALM      29.84R                  
MILLINOCKET    FAIR      62  60  93 CALM      29.83R                  
HOULTON        FAIR      58  57  97 CALM      29.79R                  
PRESQUE ISLE   FAIR      62  54  74 W10       29.80R                  
FRENCHVILLE    FAIR      58  50  75 NW9       29.79S                  
CARIBOU        FAIR      60  52  74 W5        29.78R                  
$$

NHZ002-005-008-009-011-012-014-230600-
NEW HAMPSHIRE
  
CITY           SKY/WX    TMP DP  RH WIND       PRES   REMARKS
PORTSMOUTH     CLOUDY    72  61  67 W7        29.86R                  
ROCHESTER      FAIR      71  60  68 VRB3      29.88R                  
NASHUA         CLOUDY    72  58  61 W5        29.90R                  
MANCHESTER     MOCLDY    74  57  55 W6        29.88R                  
CONCORD        FAIR      70  58  65 NW6       29.90R                  
LACONIA        FAIR      66  57  72 CALM      29.91R                  
PLYMOUTH       FAIR      58  56  94 CALM      29.92R                  
BERLIN         NOT AVBL                                               
WHITEFIELD     FAIR      55  52  89 CALM      29.92R                  
JAFFREY        FAIR      69  54  58 W5        29.94R                  
KEENE          CLOUDY    67  57  70 CALM      29.93R                  
LEBANON        FAIR      59  55  87 CALM      29.92R                  
MT WASHINGTON  FOG       45  45 100 NW40G49     N/A  VSB 0            
$$

VTZ005-007-008-230600-
VERMONT
  
CITY           SKY/WX    TMP DP  RH WIND       PRES   REMARKS
ST JOHNSBURY     N/A     57  57 100 MISG      29.90R                  
MONTPELIER     FAIR      56  54  93 W3        29.97R                  
BURLINGTON     CLOUDY    64  56  75 CALM      29.92R                  
$$

MAZ007-012-024-CTZ003-RIZ002-NYZ038-NYZ072-230600-
SOUTHERN NEW ENGLAND AND NY
  
CITY           SKY/WX    TMP DP  RH WIND       PRES   REMARKS
BOSTON         CLOUDY    79  55  43 NW12      29.88R                  
WORCESTER      CLOUDY    69  54  58 W9        29.94R                  
NANTUCKET      FAIR      72  70  93 SW10      29.89R                  
PROVIDENCE     LGT RAIN  74  71  91 W7        29.91R                  
HARTFORD       CLOUDY    71  64  78 VRB3      29.92R                  
ALBANY         FAIR      66  52  60 W3        29.96S                  
NEW YORK CITY  LGT RAIN  74  70  87 CALM      29.91R                  
$$

ANZ081-ANZ082-ANZ150-NHZ014-MEZ023>029-230600-
COASTAL MARINE OBSERVATIONS
  
STATION/POSITION TIME  TEMP    WIND        PRES    WAVE
                       AIR SEA DIR/SP/G            HT/PER
                 (UTC) (F)     (DEG/KT/KT) (MB)    (FT/S)
MATINICUS ROCK   0450   64                 1009.6R
ISLE OF SHOALS   0400   73     260/  9/  9 1010.6R
JEFFREYS LEDGE   0438      70                N/A     2/ 7
CASHES LEDGE BUO 0450   67 64  300/  6/  8 1010.7R   2/ 7
GEORGES BANK BUO 0440   70 67  240/  8/ 10 1013.6R
$$

.............KEY..............
   WCI - WIND CHILL
   TC  - TEMPERATURE IN CELSIUS
   VSB - VISIBILITY IN MILES
   HX  - HEAT INDEX
   FAIR- INDICATES FEW OR NO CLOUDS BELOW 12,000 FT, WITH NO 
         SIGNIFICANT WEATHER AND/OR OBSTRUCTIONS TO VISIBILITY.